Regional Weather Roundup
Issued by NWS San Angelo, TX

Home | Current Version | Previous Version | Text Only | Print | Product List | Glossary On
Versions: 1 2 3 4 5 6 7 8 9 10 11 12 13 14 15 16 17 18 19 20 21 22 23 24 25 26 27 28 29 30 31 32 33 34 35 36 37 38 39 40 41 42 43 44 45 46 47 48 49 50
000
ASUS44 KSJT 222310
RWRSJT
WEST CENTRAL TEXAS REGIONAL WEATHER ROUNDUP
NATIONAL WEATHER SERVICE SAN ANGELO TX
600 PM CDT TUE AUG 22 2017

NOTE: "FAIR" INDICATES FEW OR NO CLOUDS BELOW 12,000 FEET WITH NO
SIGNIFICANT WEATHER AND/OR OBSTRUCTIONS TO VISIBILITY.

TXZ049-054-064>066-071>073-076>078-098-099-113-114-127-128-139-140-
154-155-168>170-230000
...LOCATIONS ACROSS WEST CENTRAL TEXAS...

CITY           SKY/WX    TMP DP  RH WIND       PRES   REMARKS
SAN ANGELO     SUNNY     96  58  27 E6G17     30.00F
ABILENE        MOSUNNY   93  61  34 SE10      30.00F
DYESS AFB      PTSUNNY   95  64  36 SE9       29.98F
JUNCTION       MOSUNNY   95  62  33 E10       30.00F
SWEETWATER     CLOUDY    92  58  31 SE8       30.05F
BROWNWOOD      LGT RAIN  95  59  30 E8        29.98F
COLEMAN        CLEAR     96  58  27 SE9G18    30.00F
SONORA         SUNNY     93  59  31 VRB6      30.06F
OZONA          FAIR      93  57  29 S8        30.06F
BRADY          NOT AVBL
$$

TEXAS PANHANDLE/OKLAHOMA PANHANDLE

CITY           SKY/WX    TMP DP  RH WIND       PRES   REMARKS
AMARILLO       CLOUDY    76  68  76 NE7       30.19S
BORGER         MOSUNNY   82  69  64 NE9       30.16S
CANADIAN       CLOUDY    80  71  73 E9        30.12R
DALHART        CLOUDY    74  64  71 NE14      30.25S
DUMAS          MOCLDY    74  65  73 N8G16     30.22R
GUYMON         NOT AVBL
HEREFORD       LGT RAIN  72  69  90 NE13      30.23R
PAMPA          CLOUDY    81  68  65 E14       30.18R
PERRYTON       MOSUNNY   86  66  50 NE15      30.13S
$$

SOUTHERN PANHANDLE/SOUTH PLAINS/ROLLING PLAINS

CITY           SKY/WX    TMP DP  RH WIND       PRES   REMARKS
LUBBOCK        MOSUNNY   89  65  44 SE8       30.09S
SNYDER         MOSUNNY   92  59  32 S10       30.04S
CHILDRESS      RAIN      72  68  87 S9        30.12R FOG
SEMINOLE       CLOUDY    91  59  34 S7        30.09F
$$

PERMIAN BASIN

CITY           SKY/WX    TMP DP  RH WIND       PRES   REMARKS
MIDLAND        CLOUDY    88  62  41 W14       30.05S
ODESSA         CLOUDY    87  63  44 SW3       30.06F
WINK           SUNNY     95  60  31 SW5       30.02F
$$

FAR WEST/SOUTHWEST MOUNTAINS/TRANS PECOS

CITY           SKY/WX    TMP DP  RH WIND       PRES   REMARKS
ALPINE         CLOUDY    74  59  58 SE10G16   30.24F
DRYDEN           N/A     95  61  32 SE10G20   29.99F
EL PASO        MOSUNNY   93  57  29 E5        30.09F
FORT STOCKTON  PTSUNNY   94  63  35 S17G23    30.05S
GUADALUPE PASS CLOUDY    77  63  61 NE5       30.26R
MARFA          CLOUDY    80  59  48 E14       30.21F
PECOS          CLEAR     97  60  29 CALM      30.00F
$$

DALLAS/FORT WORTH METROPLEX

CITY           SKY/WX    TMP DP  RH WIND       PRES   REMARKS
DFW AIRPORT    MOSUNNY   96  68  39 SE9       29.94F
FTW MEACHAM    SUNNY     98  68  37 E12       29.95F
DAL-EXECUTIVE  SUNNY     96  66  37 E7        29.95F
GRAND PRAIRIE  MOSUNNY   97  63  32 SE7       29.97F
ADDISON        MOSUNNY   93  64  38 SE8       29.97F
MESQUITE       PTCLDY    95  64  36 E7        29.96F
LANCASTER      CLEAR     96  66  37 SE10      29.96F
$$

NORTH CENTRAL TEXAS

CITY           SKY/WX    TMP DP  RH WIND       PRES   REMARKS
SHRMAN/DENISON CLEAR     92  70  48 S6        29.97F
GAINESVILLE    PTSUNNY   91  70  51 CALM      29.98F
BRIDGEPORT     PTCLDY    94  64  36 SE5       29.98F
DENTON         SUNNY     95  70  44 S3        29.95F
WAXAHACHIE     CLEAR     95  68  40 E3        29.97F
GRANBURY       CLEAR     97  64  33 SE6       29.97F
$$

WESTERN NORTH TEXAS

CITY           SKY/WX    TMP DP  RH WIND       PRES   REMARKS
WICHITA FALLS  PTSUNNY   92  67  43 E7        29.97F
VERNON         CLOUDY    86  64  47 NW8       30.02R
BRECKENRIDGE   PTCLDY    95  59  29 S8        29.98F
COMANCHE       SUNNY     96  62  31 E8        29.99F
$$

CENTRAL AND SOUTH CENTRAL TEXAS

CITY           SKY/WX    TMP DP  RH WIND       PRES   REMARKS
AUSTIN/BERGSTM MOSUNNY   97  65  34 E6        29.95F
WACO           SUNNY     97  65  34 S7        29.95F
HILLSBORO      CLEAR     97  64  33 SE5       29.96F
TEMPLE         PTSUNNY   95  65  37 SE9       29.97F
KILLEEN-GRAY   SUNNY     97  68  38 SE10      29.97F
FORT HOOD      SUNNY    N/A N/A N/A S9        29.94F
GEORGETOWN     MOSUNNY   96  65  35 E8        29.99F
LAGO VISTA     FAIR      95  61  32 SE5       30.00F
SAN MARCOS     SUNNY     96  65  35 VRB3      29.97F
NEW BRAUNFELS  SUNNY     97  63  32 S8G17     29.95F
RANDOLPH AFB   SUNNY     96  63  33 S3        29.97F
SAN ANTONIO    MOSUNNY   95  65  37 E7        29.98F
STINSON        MOSUNNY   98  66  34 SE6       29.94F
PLEASANTON     NOT AVBL
LA GRANGE      MOSUNNY  100  64  30 S10       29.93F
GIDDINGS       PTCLDY    93  63  36 SE5       29.97F
$$

EAST TEXAS

CITY           SKY/WX    TMP DP  RH WIND       PRES   REMARKS
PARIS          MOSUNNY   94  73  50 S7        29.98F
CLARKSVILLE    NOT AVBL
TYLER          MOSUNNY   91  71  51 S6        29.99F
LONGVIEW       MOSUNNY   94  72  48 NE5       29.97F
PALESTINE      CLEAR     94  68  41 E5        29.98F
NACOGDOCHES    SUNNY     94  69  44 SE7       29.99F
$$

TEXAS HILL COUNTRY AND EDWARDS PLATEAU

CITY           SKY/WX    TMP DP  RH WIND       PRES   REMARKS
LLANO          CLEAR     97  63  32 SE7       30.01F
HORSESHOE BAY  FAIR      96  62  32 SE5       29.99F
KERRVILLE      PTSUNNY   94  69  43 SE13      30.02F
FREDERICKSBRG  SUNNY     90  59  35 SE7       30.02F
ROCKSPRINGS    NOT AVBL
HONDO          SUNNY     97  65  34 E9        29.98F
UVALDE         CLEAR     96  63  33 E12       29.97F
DEL RIO        MOSUNNY   99  60  27 E9        29.93F
$$

SOUTHEAST TEXAS

CITY           SKY/WX    TMP DP  RH WIND       PRES   REMARKS
COLLEGE STN    PTSUNNY   97  66  36 SE5       29.95F
CALDWELL       NOT AVBL
CROCKETT       MOCLDY    93  70  46 S7        30.00S
BRENHAM        SUNNY     97  62  31 SE7       29.97F
HUNTSVILLE     SUNNY     95  64  35 CALM      29.97F
CONROE         SUNNY     93  68  43 SE8       29.98F
HOUSTON BUSH   MOSUNNY   91  70  49 E15       29.97F
HOUSTON HOBBY  PTSUNNY   93  70  46 SE7       29.97F
PERLAND        MOSUNNY   93  71  48 SE12      30.00S
WHARTON        CLEAR     91  68  45 SE10      29.98S
$$

THE UPPER TEXAS COAST

CITY           SKY/WX    TMP DP  RH WIND       PRES   REMARKS
ORANGE         MOCLDY    89  73  59 S7        30.01F
PORT ARTHUR    MOSUNNY   89  72  56 E8        29.99S
GALVESTON      MOSUNNY   88  76  67 SE9       30.00F
ANGLETON       SUNNY     91  70  49 SE10      29.99F
BAY CITY       CLEAR     91  69  48 SE9       29.98F
$$

TEXAS COASTAL BEND, RIO GRANDE PLAINS DEEP SOUTH TEXAS

CITY           SKY/WX    TMP DP  RH WIND       PRES   REMARKS
VICTORIA       MOSUNNY   93  71  48 SE15      29.97S
BEEVILLE       FAIR      82  82  99 SW5       29.97F
ROCKPORT       SUNNY     90  74  59 SE14      29.97F
PORT ARANSAS   CLEAR     87  75  68 E12       29.98S
PORT LAVACA    CLEAR     89  73  58 E15       29.98F
CORPUS CHRISTI MOSUNNY   92  70  48 E16       29.97F
KINGSVILLE NAS MOSUNNY   93  72  50 SE17G24   29.96S
COTULLA        MOSUNNY   98  60  28 E5        29.93F
LAREDO         MOSUNNY  100  68  35 SE14      29.93F
BROWNSVILLE    MOSUNNY   89  74  60 E13       29.97S
PORT ISABEL    SUNNY     89  76  65 E17       29.96F
HEBBRONVILLE   PTCLDY    91  67  44 SE15      29.98R
MCALLEN        MOSUNNY   97  70  41 E18G25    29.94F
WESLACO        MOSUNNY   93  69  45 SE10G21   29.94S
FALFURRIAS     PTCLDY    93  67  43 CALM      29.95F
EDINBURG       PTCLDY    96  64  34 E15G21    29.95S
$$



USA.gov is the U.S. government's official web portal to all federal, state and local government web resources and services.